Location: Stuttgart
(48.8069°N, 9.1544°E)
Time: 03:08:26
(UTC+02:00)

ISS - Pass Details

Date: 15 May 2021
Orbit: 417 x 422 km, 51.6° (Epoch: 15 June)

Event Time Altitude Azimuth Distance (km) Brightness Sun altitude
Rises 22:00:52 0° 212° (SSW) 2,352 -0.1 -9.0°
Reaches altitude 10° 22:03:11 10° 198° (SSW) 1,493 -1.2 -9.3°
Maximum altitude 22:05:58 24° 142° (SE) 907 -2.7 -9.6°
Drops below altitude 10° 22:08:46 10° 86° (E) 1,504 -1.3 -9.9°
Sets 22:11:06 0° 72° (ENE) 2,372 -0.2 -10.2°
